HELIOS 1B

Last updated on Tue Oct 14 2025 00:02:14 GMT+0000 (Coordinated Universal Time)

1 25977U 99064A 25286.64981067 .00002597 00000+0 29711-3 0 9997 2 25977 98.1766 179.5467 0001755 123.0304 237.1079 14.86920050663402
UTC large
Height (km)
Speed (km/s)
/
Latitude / Longitude
Inclination (degrees)
Orbital Period (minutes)
Azimuth
Elevation
Range (km)
Doppler Factor

Next 0 passes for location: London (51.5072 / 0.1276)

Sorry there are no passes over London.